Simultaneous Nadir Overpasses (SNOs) Predictions

Prediction of SNOs between AURA and NPP Satellite Orbit:

Table of predicted SNOs for the next 14.0 days since TLE Epoch: 1/14/2017
Index Date (AURA) Time (AURA) Lat,Lon (AURA) SZA (AURA ) Date (NPP) Time (NPP) Lat,Lon (NPP) SZA (NPP ) Distance(km) Time Diff (sec)
1 01/16/2017 19:08:14 -79.63, -29.30 66.93 01/16/2017 19:08:03 -79.63, -29.27 66.92 0.56 11
2 01/16/2017 19:57:35 79.81, 139.72 112.80 01/16/2017 19:58:42 79.81, 139.64 112.77 1.62 67
3 01/19/2017 10:35:21 79.43, -82.44 112.87 01/19/2017 10:34:18 79.42, -82.49 112.93 1.33 63
4 01/19/2017 11:24:41 -79.70, 87.09 67.53 01/19/2017 11:24:55 -79.69, 87.08 67.53 0.44 14
5 01/22/2017 02:51:48 79.49, 33.89 112.23 01/22/2017 02:51:10 79.49, 33.82 112.27 1.45 38
6 01/22/2017 03:41:08 -79.76,-156.54 68.17 01/22/2017 03:41:47 -79.76,-156.57 68.19 0.67 39
7 01/24/2017 19:08:14 79.59, 150.46 111.50 01/24/2017 19:08:01 79.59, 150.41 111.51 1.01 13
8 01/24/2017 19:57:35 -79.82, -40.21 68.86 01/24/2017 19:58:39 -79.82, -40.23 68.90 0.37 64
9 01/27/2017 10:35:19 -79.47, 97.83 68.96 01/27/2017 10:34:13 -79.47, 97.89 68.93 1.46 66




NCC Satellite Simultaneous Nadir Overpasses (SNOs) Prediction Service
